Location: Comstock Ranch
(38.0499°N, 120.2627°W)
Time: 22:00:15
(UTC+00:00)

Cosmos 1862 - Pass Details

Date: 08 September 2024
Orbit: 499 x 516 km, 82.5° (Epoch: 12 October)

Event Time Altitude Azimuth Distance (km) Brightness Sun altitude
Rises 12:54:12 0° 336° (NNW) 2,601 6.7 -9.2°
Reaches altitude 10° 12:56:44 10° 319° (NW) 1,710 5.6 -8.7°
Maximum altitude 12:59:30 20° 271° (W) 1,204 4.5 -8.2°
Drops below altitude 10° 13:02:15 10° 223° (SW) 1,698 5.3 -7.6°
Sets 13:04:45 0° 206° (SSW) 2,576 6.4 -7.2°
